JR2TER-13 Weather Reports


Display with metric or nautical units.
time (UTC)temp
F
wind
direction
speed
MPH
gust
MPH
rain 1hr
in
rain 24hr
in
rain mn
in
humidity
%
barometer
mb
20260504141004 58 309 5.0 13.0 0.00 0.37 0.28 50 1012.1
20260504130504 59 311 10.0 16.0 0.00 0.74 0.28 50 1012.1
20260504110503 60 311 9.0 18.0 0.00 1.03 0.28 50 1010.1
20260504100504 61 312 9.0 21.0 0.00 1.03 0.28 50 1008.1
20260504082004 65 324 20.0 31.0 0.00 1.12 0.28 50 1005.1
20260504081504 65 320 19.0 29.0 0.00 1.12 0.28 50 1004.1
20260504081005 66 323 18.0 33.0 0.00 1.12 0.28 50 1004.1
20260504050504 75 323 11.0 16.0 0.00 1.20 0.28 50 999.1
20260504050005 75 323 11.0 15.0 0.00 1.20 0.28 50 999.1
20260504045504 76 318 10.0 20.0 0.00 1.20 0.28 50 999.1
20260504045004 76 322 11.0 20.0 0.00 1.20 0.28 50 1000.1
20260504044504 76 324 11.0 23.0 0.00 1.20 0.28 50 1000.1
20260504044003 77 319 12.0 23.0 0.00 1.20 0.28 50 1000.1
20260504043005 78 321 14.0 18.0 0.00 1.20 0.28 50 1000.1
20260504042504 78 318 6.0 17.0 0.00 1.20 0.28 50 1000.1
20260504041504 77 325 10.0 26.0 0.00 1.20 0.28 50 999.1
20260504041004 76 322 16.0 26.0 0.00 1.20 0.28 50 999.1
20260504040004 77 312 10.0 24.0 0.00 1.20 0.28 50 1000.1
20260504035503 78 306 12.0 24.0 0.00 1.20 0.28 50 1000.1
20260504035004 78 301 11.0 27.0 0.00 1.20 0.28 50 1001.1
20260504034503 78 311 19.0 27.0 0.00 1.20 0.28 50 1001.1
20260504033504 78 325 9.0 27.0 0.00 1.20 0.28 50 999.1
20260504032503 78 300 16.0 19.0 0.00 1.20 0.28 50 999.1
20260504032004 78 302 7.0 23.0 0.00 1.20 0.28 50 1000.1
20260504031505 78 301 11.0 23.0 0.00 1.20 0.28 50 1000.1
20260504031004 78 309 15.0 25.0 0.00 1.20 0.28 50 1000.1
20260504030504 79 309 13.0 25.0 0.00 1.20 0.28 50 1001.1
20260504025504 80 308 13.0 27.0 0.00 1.20 0.28 50 1001.1
20260504025005 80 306 16.0 27.0 0.00 1.20 0.28 50 1001.1
20260504024504 80 309 13.0 22.0 0.00 1.20 0.28 50 1001.1
20260504024004 79 314 11.0 22.0 0.00 1.20 0.28 50 1001.1
20260504023503 78 313 11.0 22.0 0.00 1.20 0.28 50 1000.1
20260504023004 79 311 13.0 20.0 0.00 1.20 0.28 50 1000.1
20260504022504 79 310 13.0 17.0 0.00 1.20 0.28 50 1000.1
20260504022003 79 311 9.0 17.0 0.00 1.20 0.28 50 1000.1
20260504021504 79 308 9.0 20.0 0.00 1.20 0.28 50 1000.1
20260504021004 79 305 12.0 20.0 0.00 1.20 0.28 50 1000.1
20260504020503 80 308 10.0 13.0 0.00 1.20 0.28 50 1000.1
20260504020004 80 311 7.0 19.0 0.00 1.20 0.28 50 1000.1
20260504015504 79 303 15.0 19.0 0.00 1.20 0.28 50 1000.1
20260504015004 79 302 11.0 19.0 0.00 1.20 0.28 50 1000.1
20260504014503 79 306 12.0 19.0 0.00 1.20 0.28 50 1000.1
20260504014004 79 305 11.0 13.0 0.00 1.20 0.28 50 1000.1
20260504013504 79 310 10.0 13.0 0.00 1.20 0.28 50 1000.1
20260504013003 79 309 7.0 13.0 0.00 1.20 0.28 50 1000.1
20260504012503 79 304 10.0 13.0 0.00 1.20 0.28 50 1000.1
20260504011504 77 305 7.0 13.0 0.00 1.20 0.28 50 1000.1
20260504010503 76 313 3.0 13.0 0.00 1.20 0.28 50 1000.1
20260504005503 76 306 9.0 15.0 0.00 1.20 0.28 50 1000.1
20260504005005 76 302 10.0 15.0 0.00 1.20 0.28 50 1001.1
20260504004504 75 307 8.0 12.0 0.00 1.20 0.28 50 1001.1
20260504004003 74 311 6.0 12.0 0.00 1.20 0.28 50 1001.1
20260504003504 73 309 9.0 12.0 0.00 1.20 0.28 50 1002.1
20260504003003 73 316 9.0 12.0 0.00 1.20 0.28 50 1002.1
20260504002503 72 326 4.0 8.0 0.00 1.20 0.28 50 1002.1
20260504002004 71 314 6.0 8.0 0.00 1.20 0.28 50 1001.1
20260504001504 71 299 2.0 6.0 0.00 1.20 0.28 50 1001.1
20260504001003 71 292 6.0 6.0 0.00 1.20 0.28 50 1001.1
20260504000504 70 277 3.0 4.0 0.00 1.20 0.28 50 1002.1
20260504000004 70 230 1.0 4.0 0.00 1.20 0.28 50 1002.1
20260503235504 70 174 1.0 4.0 0.00 1.20 0.28 50 1002.1
20260503235004 70 167 0.0 3.0 0.00 1.20 0.28 50 1001.1
20260503234505 69 167 1.0 3.0 0.00 1.20 0.28 50 1001.1
20260503234004 69 308 0.0 4.0 0.00 1.20 0.28 50 1001.1
20260503233504 69 283 1.0 4.0 0.00 1.20 0.28 50 1002.1
20260503233004 68 260 0.0 4.0 0.00 1.20 0.28 50 1002.1
20260503232004 68 248 1.0 4.0 0.00 1.20 0.28 50 1001.1
20260503230505 67 200 2.0 3.0 0.00 1.20 0.28 50 1002.1
20260503230004 67 197 1.0 5.0 0.00 1.20 0.28 50 1002.1
20260503225504 66 206 1.0 5.0 0.00 1.20 0.28 50 1002.1
20260503225004 66 201 2.0 6.0 0.00 1.20 0.28 50 1000.1
20260503224504 66 203 4.0 7.0 0.00 1.20 0.28 50 1000.1
20260503223504 65 257 4.0 7.0 0.00 1.20 0.28 50 1000.1
20260503223004 65 261 3.0 8.0 0.00 1.20 0.28 50 1000.1
20260503222504 65 272 3.0 8.0 0.00 1.20 0.28 50 1000.1
20260503221504 65 208 1.0 4.0 0.04 1.20 0.28 50 1000.1
20260503221004 65 206 2.0 4.0 0.04 1.20 0.28 50 1000.1
20260503220503 65 273 0.0 9.0 0.04 1.20 0.28 50 999.1
20260503220003 65 284 2.0 10.0 0.04 1.20 0.28 50 999.1
20260503215504 65 288 6.0 10.0 0.04 1.20 0.28 50 999.1
20260503214504 65 298 5.0 8.0 0.04 1.20 0.28 50 1000.1
20260503214004 65 302 4.0 8.0 0.08 1.20 0.28 50 1000.1
20260503213504 65 301 2.0 8.0 0.08 1.20 0.28 50 1000.1
20260503212504 65 309 6.0 10.0 0.08 1.20 0.28 50 1000.1
20260503212004 65 303 6.0 15.0 0.04 1.16 0.24 50 999.1
20260503211505 65 303 8.0 15.0 0.04 1.16 0.24 50 999.1
20260503211004 65 303 9.0 15.0 0.04 1.16 0.24 50 999.1
20260503210504 65 301 11.0 17.0 0.04 1.16 0.24 50 999.1
20260503210005 66 298 10.0 17.0 0.04 1.16 0.24 50 999.1
20260503205504 66 304 12.0 21.0 0.04 1.16 0.24 50 999.1
20260503205004 66 306 12.0 21.0 0.04 1.16 0.24 50 999.1
20260503204504 67 297 11.0 13.0 0.00 1.12 0.20 50 999.1
20260503204004 67 305 7.0 18.0 0.00 1.12 0.20 50 999.1
20260503203504 67 310 14.0 18.0 0.00 1.12 0.20 50 999.1
20260503203004 67 303 12.0 15.0 0.00 1.12 0.20 50 999.1
20260503202503 68 299 11.0 13.0 0.00 1.12 0.20 50 999.1
20260503202003 68 306 10.0 20.0 0.00 1.12 0.20 50 1000.1
20260503201503 68 313 12.0 20.0 0.00 1.12 0.20 50 1000.1
20260503200503 68 297 5.0 13.0 0.00 1.12 0.20 50 999.1
20260503200004 68 298 8.0 12.0 0.00 1.12 0.20 50 999.1
20260503195504 68 307 6.0 10.0 0.00 1.12 0.20 50 999.1
20260503195005 68 298 7.0 10.0 0.00 1.12 0.20 50 999.1
20260503194503 68 284 7.0 9.0 0.00 1.12 0.20 50 999.1
20260503194003 68 287 3.0 11.0 0.00 1.12 0.20 50 999.1
20260503193503 67 298 3.0 11.0 0.00 1.12 0.20 50 998.1
20260503192503 67 173 1.0 3.0 0.00 1.12 0.20 50 998.1
20260503192003 67 156 0.0 5.0 0.00 1.12 0.20 50 998.1
20260503191503 67 165 3.0 5.0 0.00 1.12 0.20 50 998.1
20260503191003 67 164 3.0 7.0 0.00 1.12 0.20 50 998.1
20260503190504 67 163 5.0 7.0 0.00 1.12 0.20 50 998.1
20260503190004 67 166 2.0 7.0 0.00 1.12 0.20 50 998.1
20260503185503 68 165 6.0 7.0 0.00 1.12 0.20 50 998.1
20260503185004 68 74 0.0 2.0 0.00 1.12 0.20 50 998.1
20260503184504 68 102 0.0 3.0 0.00 1.12 0.20 50 998.1
20260503183505 68 159 0.0 6.0 0.00 1.12 0.20 50 998.1
20260503183005 68 172 2.0 11.0 0.00 1.12 0.20 50 998.1
20260503182504 69 182 6.0 20.0 0.00 1.12 0.20 50 998.1
20260503182006 69 179 9.0 20.0 0.00 1.12 0.20 50 998.1
20260503181505 69 177 13.0 26.0 0.00 1.12 0.20 50 998.1
20260503181004 69 183 13.0 26.0 0.00 1.12 0.20 50 998.1
20260503180504 70 193 16.0 34.0 0.04 1.12 0.20 50 998.1
20260503180004 70 198 20.0 39.0 0.04 1.12 0.20 50 998.1
20260503175503 70 195 23.0 39.0 0.04 1.12 0.20 50 998.1
20260503175003 71 191 24.0 41.0 0.04 1.12 0.20 50 997.1
20260503174504 71 194 27.0 41.0 0.04 1.12 0.20 50 997.1
20260503174003 71 196 27.0 39.0 0.04 1.12 0.20 50 997.1
20260503173503 70 194 24.0 39.0 0.04 1.12 0.20 50 998.1
20260503173004 70 188 22.0 28.0 0.04 1.12 0.20 50 998.1
20260503172504 70 183 25.0 28.0 0.08 1.12 0.20 50 998.1
20260503172004 69 184 19.0 28.0 0.08 1.12 0.20 50 998.1
20260503171504 69 183 13.0 28.0 0.08 1.12 0.20 50 998.1
20260503171004 69 184 16.0 24.0 0.08 1.12 0.20 50 998.1
20260503170504 69 184 13.0 15.0 0.04 1.08 0.16 50 999.1
20260503151004 67 161 1.0 10.0 0.12 0.95 0.03 50 1002.1
20260503150503 66 155 6.0 10.0 0.13 0.92 0.00 50 1003.1